BREEZE-KM DEB, 41723

Orbit data source: Space-Track

BREEZE-KM DEB, 41723 is space debris in LEO originally from a launch on Tue, 31 Mar 2015 UTC launched from the Plesetsk Missile And Space Complex (PKMTR). Debris objects in space refer to the collection of defunct objects orbiting the Earth. Examples of debris include non-operational satellites, rocket bodies, and fragments generated from explosions, collisions, or faulty payload assembly.

Loading next visibility...
Identifier
41723, 2015-020L
Orbit
LEO
Country
Flag of CISCIS
Related business
Manufacturer
Khrunichev
Mission
Spacecraft
Bus & Motor
Unknown
Mass
Unknown
Launch date (UTC)
2015-03-31 (10 years ago)
Launch vehicle
Unknown
Launch site
Plesetsk Missile And Space Complex (PKMTR)
Object type
Payload
Rocket body
Debris
Shape & HBR
Unknown
Radar Cross Section
Small (<0.1 m²)

Expand to show TLE details & history
Last TLE update: 2 weeks ago

TLE from 2 weeks ago
0 BREEZE-KM DEB
1 41723U 15020L   25250.96486621  .00000338  00000-0  10740-2 0  9999
2 41723  82.4911 341.3142 0223623 178.2190 181.9768 12.92793437462861
Epoch: 2025-09-07T23:09Z
TLE epoch observation values (Epoch: 2025-09-07T23:09:24.44Z)
Latitude
-0°
Longitude
6.68559°
Altitude
1,464.651 km
Speed
7.05 km/s
True Right ascension
22h 45m 15s
True Declination
0° 00' 00"
Sunlit
Object was in full shadow at epoch
Visualization orbit readout
Latitude
Unknown
Longitude
Unknown
Altitude
Unknown
Speed
Unknown
Apparent Right ascension
Unknown
Apparent Declination
Unknown
Sunlit
N/A
Visualization observer readout
Local Sidereal Time
05:34:57
Azimuth
Unknown
Elevation
Unknown
Doppler factor
Unknown
Orbital elements
Apogee altitude
1,459.163 km
Perigee altitude
1,116.309 km
Semi-major axis
7,665.873 km
Eccentricity
0.02236
Inclination
82.4911°
RAAN
341.3142°
Arg. of periapsis
178.219°
True anomaly
181.89081°
Mean anomaly
181.9768°
Eccentric anomaly
181.93357°
Mean motion
3.23371 °/min
Orbital period
111.33 mins
BSTAR
0.001074
Loading maneuver chart data...
Computing Atmospheric mass density...
Loading historical data...
Loading historical data...
Loading historical data...
Loading historical data...
Loading historical data...
Loading historical data...
Loading historical data...

Documentation

Showing up to 5 results
|